Regional Weather Roundup
Issued by NWS

Home | Current Version | Previous Version | Text Only | Print | Product List | Glossary Off
Versions: 1 2 3 4 5 6 7 8 9 10 11 12 13 14 15 16 17 18 19 20 21 22 23 24 25 26 27 28 29 30 31 32 33 34 35 36 37 38 39 40 41 42 43 44 45 46 47 48 49 50

000
ASUS43 KDTX 010301
RWRMI
MICHIGAN HOURLY REGIONAL WEATHER ROUNDUP
NATIONAL WEATHER SERVICE DETROIT/PONTIAC MI
1100 PM EDT TUE MAY 31 2016

NOTE: "FAIR" INDICATES FEW OR NO CLOUDS BELOW 12,000 FEET WITH NO
SIGNIFICANT WEATHER AND/OR OBSTRUCTION TO VISIBILITY.

MIZ047>049-052>055-059>063-066>070-074>076-081>083-010400-
SOUTHEAST LOWER MICHIGAN

CITY           SKY/WX    TMP DP  RH WIND       PRES   REMARKS
ADRIAN         CLEAR     68  53  58 SE6       30.03R
ALMA           CLEAR     60  53  76 N7        30.05S
ANN ARBOR      CLEAR     66  51  58 E6        30.03S
BAD AXE        CLEAR     50  46  84 CALM      30.10F
CARO           CLEAR     58  46  66 E6        30.07F
DETROIT CITY   PTCLDY    61  47  59 NE7       30.06S
DETROIT        PTCLDY    66  49  54 NE7       30.05S
FLINT          PTCLDY    67  49  52 E9        30.06R
GROSSE ILE     PTCLDY    64  54  68 NE12      30.03S
HILLSDALE      CLEAR     68  45  43 SE5       30.04R
HOWELL         PTCLDY    68  49  51 E7        30.04S

CITY           SKY/WX    TMP DP  RH WIND       PRES   REMARKS
JACKSON        CLOUDY    70  42  36 SE8       30.03R
LAMBERTVILLE   PTCLDY    66  58  75 CALM      30.03S
LANSING        CLOUDY    68  53  58 E5        30.03R
LAPEER         FAIR      58  45  60 CALM      30.08S
MASON          CLOUDY    70  49  46 S7        30.03S
MONROE         PTCLDY    65  55  69 NE7       30.03S
PONTIAC        PTCLDY    62  45  53 E7        30.05F
PORT HOPE        N/A     57  51  80 NE9       30.10R
PORT HURON     CLEAR     52  48  87 CALM      30.08F
TRI CITIES     CLEAR     65  48  54 E9        30.07S
MIDLAND        FAIR      57  52  82 NE6       30.06F
TROY           CLEAR     64  44  48 E6        30.08S
SAGINAW HB     PTCLDY    61  46  59 E7        30.06S
$$
MIZ043>046-050>051-056>058-064>065-071>073-077>080-010400-
SOUTHWEST LOWER MICHIGAN

CITY           SKY/WX    TMP DP  RH WIND       PRES   REMARKS
BATTLE CREEK   MOCLDY    71  47  42 S6        30.03R
BENTON HARBOR  CLOUDY    65  55  70 E3        29.99S
BIG RAPIDS     CLEAR     63  52  67 SE6       30.04R
COLDWATER      CLEAR     68  49  50 SE6       30.03R
FREMONT        FAIR      63  56  78 NE3       30.01R
HOLLAND        CLOUDY    68  50  52 NE5       30.00F
GRAND RAPIDS   CLOUDY    72  52  49 CALM      30.02R
IONIA          FAIR      69  55  60 NE7       30.02R
KALAMAZOO      PTCLDY    70  53  54 CALM      30.02R
LUDINGTON      PTCLDY    60  53  77 CALM      30.00S
MARSHALL       PTCLDY    69  46  43 CALM      30.02S
MOUNT PLEASANT CLEAR     57  49  75 NE5       30.06S
MUSKEGON       MOCLDY    69  49  48 CALM      30.00R
SOUTH HAVEN    CLOUDY    66  52  60 CALM      30.00R
$$
MIZ016>042-010400-
NORTHERN LOWER MICHIGAN

CITY           SKY/WX    TMP DP  RH WIND       PRES   REMARKS
ALPENA         CLEAR     51  46  83 CALM      30.12S
BEAVER ISLAND  MOCLDY    60  49  68 E9        30.03S
BELLAIRE       CLOUDY    68  48  48 NE3       30.02S
CADILLAC       PTCLDY    62  49  62 E12G18    30.05R
CHARLEVOIX     CLOUDY    66  49  53 E14       30.06R
FRANKFORT      PTCLDY    64  57  79 CALM      29.99R
GAYLORD        PTCLDY    60  46  59 SE7       30.08S
GRAYLING       CLOUDY    60  45  57 E10       30.09R
HARBOR SPRINGS CLOUDY    61  46  56 E9        30.06S
HOUGHTON LAKE  MOCLDY    58  45  62 E8        30.08S
MANISTEE       MOCLDY    63  52  67 CALM      30.01R
OSCODA         CLEAR     53  46  78 CALM      30.10F
PELLSTON       CLEAR     61  45  55 SE10      30.08S
ROGERS CITY    CLEAR     57  45  64 SE6       30.12S
TRAVERSE CITY  CLOUDY    71  53  52 SE12G21   29.99R
$$
MIZ007>008-015-010400-
EASTERN UPPER MICHIGAN

CITY           SKY/WX    TMP DP  RH WIND       PRES   REMARKS
KINROSS          N/A     55  46  71 SE9       30.09F
MACKINAC ISLAN CLEAR     60  45  58 SE13G22   30.07F
NEWBERRY       CLOUDY    58  44  60 E9        30.06S
S. S. MARIE    CLEAR     57  47  69 E5        30.09F
MUNISING         N/A     63  43  48 SE12G20   30.00S
$$
MIZ004>006-011>014-085-010400-
CENTRAL UPPER MICHIGAN

CITY           SKY/WX    TMP DP  RH WIND       PRES   REMARKS
MANISTIQUE     CLOUDY    62  46  54 E12G18    30.02S
ESCANABA         N/A     63  48  59 E7        30.00R
MENOMINEE      CLOUDY    59  54  82 CALM      30.00S
SAWYER-GWINN   CLOUDY    62  45  54 SE13      30.00S
$$
MIZ001>003-009>011-084-010400-
WESTERN UPPER MICHIGAN

CITY           SKY/WX    TMP DP  RH WIND       PRES   REMARKS
IRON MOUNTAIN  CLOUDY    60  48  64 SE7       29.98S
HOUGHTON       LGT RAIN  48  41  76 E10       29.95F
COPPER HARBOR    N/A     51  41  68 SW5       29.97R
IRONWOOD       CLOUDY    61  57  88 SE7       29.88F
$$

ABBREVIATIONS USED IN REMARKS
   TC - TEMPERATURE IN CELSIUS
  WCI - WIND CHILL INDEX
   HX - HEAT INDEX
  VSB - VISIBILITY




USA.gov is the U.S. government's official web portal to all federal, state and local government web resources and services.